Location: Basse Occidentale du Courleau
(48.3833°N, 4.8333°W)
Time: 09:13:14
(UTC+00:00)

USA 215 - Pass Details

Date: 05 July 2020
Orbit: 1102 x 1106 km, 123.0° (Epoch: 31 July)

Event Time Altitude Azimuth Distance (km) Brightness Sun altitude
Rises 22:42:56 0° 55° (NE) 3,926 6.3 -15.4°
Reaches altitude 10° 22:45:25 10° 55° (NE) 2,966 5.7 -15.6°
Maximum altitude 22:51:59 88° 326° (NW) 1,109 3.3 -16.0°
Drops below altitude 10° 22:58:32 10° 239° (WSW) 2,956 5.4 -16.4°
Sets 23:01:00 0° 239° (WSW) 3,912 6.0 -16.6°
